Flag for U.S.A. Weather past 2 weeks in Orlando, Florida, U.S.A.

Now
78 °F

Sunny.


Feels Like: 81 °F
Forecast: 75 / 92 °F
Wind: 7 mph from Southwest

Location: Orlando Executive Airport

Current Time: Jul 2, 2015 at 9:02:13 AM

Latest Report: Jul 2, 2015 at 7:53 AM


Visibility: 10 mi

Pressure: 30.13 "Hg

Humidity: 84%

Dew point: 73 °F

Location of OrlandoLocation

Historic Weather in Orlando — Graph

°F

Orlando temperature yesterday

Maximum temperature yesterday: 92 °F (at 2:02 PM)
Minimum temperature yesterday: 76 °F (at 11:53 PM)
Average temperature yesterday: 85 °F

Past Weeks' High & Low Weather Summary

 TemperatureHumidityPressure
High96 °F (Jun 17, 3:53 PM)100% (Jun 20, 3:53 AM)30.18 "Hg (Jun 20, 3:53 AM)
Low0 °F (Jun 25, 7:53 AM)40% (Jun 17, 3:53 PM)29.98 "Hg (Jun 27, 4:53 PM)
Average82 °F76%30.09 "Hg
* Reported Jun 17 7:53 AM — Jul 2 7:53 AM, Orlando, Weather by CustomWeather, © 2015

Note: Actual official high and low records may vary slightly from our data, if they occured in-between our weather recording intervals... More about our weather records

Advertising

Orlando weather history for previous 24 hours

 ConditionsComfort  
Time TempWeatherWind HumidityBarometerVisibility
7:53 AM
Thu, Jul 2
78 °FSunny.7 mph84%30.13 "Hg10 mi
6:53 AM77 °FClear.5 mph88%30.11 "Hg10 mi
5:53 AM76 °FClear.No wind85%30.10 "Hg10 mi
4:53 AM76 °FClear.6 mph85%30.09 "Hg10 mi
3:53 AM77 °FClear.No wind85%30.09 "Hg10 mi
2:53 AM77 °FClear.3 mph82%30.10 "Hg10 mi
1:53 AM77 °FClear.5 mph82%30.11 "Hg10 mi
12:53 AM77 °FClear.6 mph88%30.13 "Hg10 mi
11:53 PM
Wed, Jul 1
76 °FPassing clouds.6 mph88%30.14 "Hg10 mi
10:53 PM78 °FLight rain. Clear.12 mph71%30.14 "Hg10 mi
9:53 PM82 °FThundershowers. Passing clouds.15 mph67%30.14 "Hg10 mi
9:03 PM82 °FBroken clouds.14 mph70%30.11 "Hg10 mi
8:53 PM83 °FSunny.14 mph65%30.12 "Hg10 mi
7:53 PM88 °FSunny.10 mph59%30.10 "Hg10 mi
6:53 PM91 °FSunny.5 mph52%30.07 "Hg10 mi
5:53 PM91 °FSunny.8 mph52%30.09 "Hg10 mi
4:53 PM91 °FSunny.7 mph52%30.09 "Hg10 mi
3:53 PM91 °FSunny.7 mph54%30.10 "Hg10 mi
2:53 PM89 °FSunny.12 mph57%30.11 "Hg10 mi
2:02 PM92 °FSunny.12 mph54%30.12 "Hg10 mi
1:53 PM91 °FSunny.14 mph56%30.12 "Hg10 mi
12:53 PM91 °FSunny.8 mph56%30.15 "Hg10 mi
11:53 AM90 °FSunny.12 mph56%30.16 "Hg10 mi
10:53 AM87 °FScattered clouds.9 mph67%30.16 "Hg10 mi
9:53 AM86 °FScattered clouds.7 mph75%30.16 "Hg10 mi
Weather by CustomWeather, © 2015

See weather overviewHow to use our weather pages